When you browse on this site, cookies collect data to enhance your experience and personalize the content and advertising you see.
Visit our Privacy Policy to learn more. By continuing to use the site, you agree to this use of cookies and data.
  • In United Kingdom
  • List of Countries
  • For 7 days
  • Water Temperature
  • Satellite Maps
  • Weather Map
  • Weather Widgets
  • user-avatar
    Login

    Hourly Weather Brazzaville

    Today, 19 April, Friday

    Time Temperature Precipitation Wind Pressure Humidity
    00:00 +29°C° 0.6 mm 1 mps 733 mmHg 75%
    01:00 +27°C° 0 mm 1 mps 733 mmHg 85%
    02:00 +27°C° 0.3 mm 1 mps 733 mmHg 86%
    03:00 +27°C° 0.3 mm 1 mps 733 mmHg 86%
    04:00 +27°C° 0.3 mm 1 mps 733 mmHg 87%
    05:00 +27°C° 0.3 mm 1 mps 733 mmHg 86%
    06:00 +25°C° 0.3 mm 0 mps 734 mmHg 85%
    07:00 +25°C° 0.3 mm 0 mps 734 mmHg 85%
    08:00 +28°C° 0.2 mm 0 mps 734 mmHg 75%
    09:00 +31°C° 0.2 mm 0 mps 734 mmHg 66%
    10:00 +33°C° 0.2 mm 0 mps 735 mmHg 57%
    11:00 +36°C° 0.1 mm 1 mps 734 mmHg 52%
    12:00 +37°C° 0.1 mm 1 mps 734 mmHg 47%
    13:00 +37°C° 0.1 mm 1 mps 733 mmHg 43%
    14:00 +37°C° 0 mm 1 mps 732 mmHg 45%
    15:00 +36°C° 0 mm 1 mps 732 mmHg 46%
    16:00 +36°C° 0 mm 1 mps 731 mmHg 48%
    17:00 +34°C° 0 mm 1 mps 732 mmHg 52%
    18:00 +33°C° 0 mm 1 mps 732 mmHg 55%
    19:00 +30°C° 0 mm 0 mps 732 mmHg 59%
    20:00 +31°C° 0.4 mm 1 mps 733 mmHg 64%
    21:00 +30°C° 0.4 mm 1 mps 733 mmHg 69%
    22:00 +29°C° 0.4 mm 2 mps 733 mmHg 74%
    23:00 +29°C° 0.1 mm 2 mps 733 mmHg 76%

    Tomorrow, 20 April, Saturday

    Time Temperature Precipitation Wind Pressure Humidity
    00:00 +28°C° 0.1 mm 1 mps 733 mmHg 78%
    01:00 +28°C° 0.1 mm 1 mps 733 mmHg 81%
    02:00 +27°C° 0 mm 1 mps 733 mmHg 83%
    03:00 +27°C° 0 mm 1 mps 733 mmHg 85%
    04:00 +27°C° 0 mm 1 mps 732 mmHg 87%
    05:00 +27°C° 0.7 mm 1 mps 733 mmHg 87%
    06:00 +27°C° 0.7 mm 1 mps 733 mmHg 87%
    07:00 +27°C° 0.7 mm 1 mps 734 mmHg 87%
    08:00 +29°C° 1.6 mm 1 mps 734 mmHg 81%
    09:00 +30°C° 1.6 mm 1 mps 734 mmHg 75%
    10:00 +32°C° 1.6 mm 1 mps 735 mmHg 69%
    11:00 +33°C° 0.1 mm 1 mps 734 mmHg 61%
    12:00 +35°C° 0.1 mm 1 mps 733 mmHg 54%
    13:00 +35°C° 0.1 mm 0 mps 733 mmHg 46%
    14:00 +34°C° 0 mm 0 mps 732 mmHg 46%
    15:00 +34°C° 0 mm 0 mps 732 mmHg 46%
    16:00 +34°C° 0 mm 0 mps 731 mmHg 47%
    17:00 +32°C° 0 mm 0 mps 731 mmHg 52%
    18:00 +32°C° 0 mm 1 mps 732 mmHg 57%
    19:00 +31°C° 0 mm 1 mps 732 mmHg 63%
    20:00 +30°C° 0 mm 1 mps 733 mmHg 66%
    21:00 +30°C° 0 mm 1 mps 733 mmHg 70%
    22:00 +29°C° 0 mm 1 mps 734 mmHg 74%
    23:00 +29°C° 0 mm 1 mps 733 mmHg 75%

    Day after tomorrow, 21 April, Sunday

    Time Temperature Precipitation Wind Pressure Humidity
    00:00 +28°C° 0 mm 1 mps 733 mmHg 77%
    01:00 +28°C° 0 mm 1 mps 733 mmHg 78%
    02:00 +27°C° 0 mm 1 mps 733 mmHg 81%
    03:00 +27°C° 0 mm 1 mps 732 mmHg 84%
    04:00 +27°C° 0 mm 1 mps 732 mmHg 86%
    05:00 +27°C° 0 mm 1 mps 733 mmHg 86%
    06:00 +25°C° 0 mm 0 mps 733 mmHg 85%
    07:00 +25°C° 0 mm 0 mps 734 mmHg 84%
    08:00 +28°C° 0 mm 1 mps 734 mmHg 79%
    09:00 +30°C° 0 mm 1 mps 734 mmHg 74%
    10:00 +31°C° 0 mm 1 mps 735 mmHg 69%
    11:00 +32°C° 0 mm 2 mps 734 mmHg 64%
    12:00 +35°C° 0 mm 2 mps 733 mmHg 58%
    13:00 +36°C° 0 mm 2 mps 732 mmHg 52%
    14:00 +36°C° 0.2 mm 2 mps 732 mmHg 53%
    15:00 +35°C° 0.2 mm 1 mps 731 mmHg 54%
    16:00 +35°C° 0.2 mm 1 mps 730 mmHg 55%
    17:00 +33°C° 0.6 mm 1 mps 731 mmHg 61%
    18:00 +31°C° 0.6 mm 1 mps 732 mmHg 68%
    19:00 +30°C° 0.6 mm 1 mps 732 mmHg 75%
    20:00 +29°C° 0.3 mm 1 mps 732 mmHg 77%
    21:00 +29°C° 0.3 mm 1 mps 733 mmHg 79%
    22:00 +28°C° 0.3 mm 1 mps 733 mmHg 81%
    23:00 +28°C° 0.2 mm 1 mps 733 mmHg 82%

    22 April, Monday

    Time Temperature Precipitation Wind Pressure Humidity
    00:00 +28°C° 0.2 mm 1 mps 732 mmHg 83%
    01:00 +27°C° 0.2 mm 1 mps 732 mmHg 85%
    02:00 +27°C° 0 mm 1 mps 732 mmHg 86%
    03:00 +27°C° 0 mm 1 mps 732 mmHg 87%
    04:00 +25°C° 0 mm 0 mps 732 mmHg 89%
    05:00 +25°C° 0 mm 0 mps 732 mmHg 88%
    06:00 +25°C° 0 mm 0 mps 732 mmHg 87%
    07:00 +25°C° 0 mm 0 mps 733 mmHg 86%
    08:00 +27°C° 0 mm 0 mps 733 mmHg 77%
    09:00 +31°C° 0 mm 1 mps 733 mmHg 69%
    10:00 +33°C° 0 mm 1 mps 734 mmHg 60%
    11:00 +35°C° 0 mm 1 mps 733 mmHg 54%
    12:00 +37°C° 0 mm 1 mps 732 mmHg 49%
    13:00 +39°C° 0 mm 1 mps 731 mmHg 43%
    14:00 +39°C° 0 mm 1 mps 731 mmHg 44%
    15:00 +37°C° 0 mm 1 mps 730 mmHg 46%
    16:00 +36°C° 0 mm 1 mps 730 mmHg 47%
    17:00 +35°C° 0 mm 1 mps 730 mmHg 50%
    18:00 +31°C° 0 mm 0 mps 730 mmHg 53%
    19:00 +30°C° 0 mm 0 mps 731 mmHg 56%
    20:00 +29°C° 0.1 mm 0 mps 731 mmHg 59%
    21:00 +29°C° 0.1 mm 0 mps 732 mmHg 61%
    22:00 +28°C° 0.1 mm 0 mps 732 mmHg 63%
    23:00 +27°C° 0.9 mm 0 mps 732 mmHg 70%

    23 April, Tuesday

    Time Temperature Precipitation Wind Pressure Humidity
    00:00 +28°C° 0.9 mm 1 mps 731 mmHg 76%
    01:00 +27°C° 0.9 mm 1 mps 731 mmHg 82%
    02:00 +27°C° 0 mm 1 mps 731 mmHg 84%
    03:00 +27°C° 0 mm 1 mps 731 mmHg 86%
    04:00 +24°C° 0 mm 0 mps 731 mmHg 88%
    05:00 +25°C° 0 mm 0 mps 731 mmHg 87%
    06:00 +25°C° 0 mm 0 mps 732 mmHg 86%
    07:00 +25°C° 0 mm 0 mps 733 mmHg 85%
    08:00 +28°C° 0 mm 0 mps 733 mmHg 76%
    09:00 +32°C° 0 mm 1 mps 733 mmHg 68%
    10:00 +34°C° 0 mm 1 mps 733 mmHg 59%
    11:00 +36°C° 0.3 mm 1 mps 733 mmHg 53%
    12:00 +37°C° 0.3 mm 1 mps 732 mmHg 48%
    13:00 +40°C° 0.3 mm 1 mps 731 mmHg 43%
    14:00 +39°C° 0 mm 1 mps 731 mmHg 44%
    15:00 +35°C° 0 mm 0 mps 730 mmHg 45%
    16:00 +35°C° 0 mm 0 mps 730 mmHg 46%
    17:00 +33°C° 0 mm 0 mps 730 mmHg 50%
    18:00 +34°C° 0 mm 1 mps 731 mmHg 54%
    19:00 +32°C° 0 mm 1 mps 731 mmHg 58%
    20:00 +31°C° 0.4 mm 1 mps 731 mmHg 64%
    21:00 +30°C° 0.4 mm 1 mps 732 mmHg 70%
    22:00 +29°C° 0.4 mm 1 mps 732 mmHg 76%
    23:00 +29°C° 0.1 mm 1 mps 732 mmHg 78%

    24 April, Wednesday

    Time Temperature Precipitation Wind Pressure Humidity
    00:00 +28°C° 0.1 mm 1 mps 731 mmHg 80%
    01:00 +28°C° 0.1 mm 1 mps 731 mmHg 82%
    02:00 +28°C° 0 mm 1 mps 731 mmHg 84%
    03:00 +27°C° 0 mm 1 mps 731 mmHg 85%
    04:00 +27°C° 0 mm 1 mps 731 mmHg 86%
    05:00 +27°C° 0 mm 1 mps 732 mmHg 86%
    06:00 +27°C° 0 mm 1 mps 732 mmHg 85%
    07:00 +26°C° 0 mm 0 mps 733 mmHg 84%
    08:00 +30°C° 0.2 mm 1 mps 733 mmHg 76%
    09:00 +32°C° 0.2 mm 1 mps 733 mmHg 69%
    10:00 +35°C° 0.2 mm 2 mps 733 mmHg 61%
    11:00 +36°C° 0.9 mm 2 mps 732 mmHg 57%
    12:00 +36°C° 0.9 mm 1 mps 732 mmHg 53%
    13:00 +37°C° 0.9 mm 1 mps 731 mmHg 50%
    14:00 +37°C° 0 mm 1 mps 730 mmHg 49%
    15:00 +37°C° 0 mm 1 mps 730 mmHg 49%
    16:00 +37°C° 0 mm 1 mps 730 mmHg 49%
    17:00 +35°C° 0 mm 1 mps 730 mmHg 55%
    18:00 +33°C° 0 mm 1 mps 731 mmHg 61%
    19:00 +32°C° 0 mm 2 mps 731 mmHg 67%
    20:00 +31°C° 0.1 mm 1 mps 732 mmHg 71%
    21:00 +30°C° 0.1 mm 1 mps 732 mmHg 74%
    22:00 +30°C° 0.1 mm 1 mps 732 mmHg 77%
    23:00 +29°C° 0.7 mm 1 mps 732 mmHg 80%
    Show more